Header for Extended Forecast Station List Page

Search by: ID | Name | Date | Parm | Value | Avg | % Avg
Sort by: ID | Name | Date | Parm | Value | Avg | % Avg

Enter search or view all records.

Click on id for station plot
#IDNameDateParmValueAvg% Avg
0LEOI1KOOTENAI-AT LEONIA10-09-2018DISCHARGE (KAF)24801614154
1FCFM8NF FLATHEAD-NEAR COLUMBIA FALLS10-09-2018DISCHARGE (KAF)11219657
2WGCM8MF FLATHEAD-NEAR WEST GLACIER10-09-2018DISCHARGE (KAF)15117288
3CFMM8FLATHEAD-AT COLUMBIA FALLS10-09-2018DISCHARGE (KAF)902119276
4DLGM8CLARK FORK-AT DEER LODGE10-09-2018DISCHARGE (KAF)6963109
5DRMM8CLARK FORK-NR DRUMMOND10-09-2018DISCHARGE (KAF)167MM
6RCCM8ROCK CREEK-NEAR CLINTON10-09-2018DISCHARGE (KAF)6050121
7BONM8BLACKFOOT-NEAR BONNER10-09-2018DISCHARGE (KAF)139137101
8ABOM8CLARK FORK-ABOVE MISSOULA10-09-2018DISCHARGE (KAF)381347110
9BITM8BITTERROOT-NEAR MISSOULA10-09-2018DISCHARGE (KAF)16623072
10BELM8CLARK FORK-BELOW MISSOULA10-09-2018DISCHARGE (KAF)55058195
11STRM8ST. REGIS-NEAR ST. REGIS10-09-2018DISCHARGE (KAF)183651
12SRGM8CLARK FORK-AT ST REGIS10-09-2018DISCHARGE (KAF)68575790
13PRTI1PRIEST-NEAR PRIEST RIVER10-09-2018DISCHARGE (KAF)13823459
14SPOW1SPOKANE-AT SPOKANE10-09-2018DISCHARGE (KAF)339MM
15SATI1ST MARIES-NEAR SANTA10-09-2018DISCHARGE (KAF)152952
16CIBW1COLUMBIA-AT INTL BOUNDARY10-09-2018DISCHARGE (KAF)19033MM
17LAUW1KETTLE-AT LAURIER10-09-2018DISCHARGE (KAF)9012771
18TONW1OKANOGAN-NEAR TONASKET10-09-2018DISCHARGE (KAF)23628084
19PATW1METHOW-NEAR PATEROS10-09-2018DISCHARGE (KAF)101100102
20ARDW1ENTIAT-NEAR ARDENVOIR10-09-2018DISCHARGE (KAF)192287
21PESW1WENATCHEE-AT PESHASTIN10-09-2018DISCHARGE (KAF)18429063
22EASW1YAKIMA-AT EASTON10-09-2018DISCHARGE (KAF)456470
23TNAW1TEANAWAY-BELOW FORKS10-09-2018DISCHARGE (KAF)113533
24UMTW1YAKIMA-AT UMTANUM10-09-2018DISCHARGE (KAF)19724182
25CLFW1NACHES-NEAR CLIFFDEL10-09-2018DISCHARGE (KAF)669867
26NACW1NACHES-NEAR NACHES10-09-2018DISCHARGE (KAF)547076
27PARW1YAKIMA-NEAR PARKER10-09-2018DISCHARGE (KAF)31542374
28KIOW1YAKIMA-AT KIONA10-09-2018DISCHARGE (KAF)54165982
29CHEI1FALL RIVER-NEAR CHESTER10-09-2018DISCHARGE (KAF)117111105
30ANTI1HENRYS FORK-AT ST. ANTHONY10-09-2018DISCHARGE (KAF)349338103
31TEAI1TETON-NEAR ST. ANTHONY10-09-2018DISCHARGE (KAF)9910792
32REXI1HENRYS FORK-AT REXBURG10-09-2018DISCHARGE (KAF)433428101
33JKSW4SNAKE-NEAR JACKSON10-09-2018DISCHARGE (KAF)325315103
34ALPW4SNAKE-NEAR ALPINE10-09-2018DISCHARGE (KAF)413400103
35HEII1SNAKE-NEAR HEISE10-09-2018DISCHARGE (KAF)631620102
36SIFI1SNAKE-AB EAGLE ROCK NR IDAHO FALLS10-09-2018DISCHARGE (KAF)868817106
37SHYI1SNAKE-NEAR SHELLEY10-09-2018DISCHARGE (KAF)863797108
38SNAI1SNAKE-AT BLACKFOOT10-09-2018DISCHARGE (KAF)758714106
39BFTI1SNAKE-NEAR BLACKFOOT10-09-2018DISCHARGE (KAF)777771101
40PIHI1PORTNEUF-AT POCATELLO10-09-2018DISCHARGE (KAF)535989
41MILI1SNAKE-AT MILNER10-09-2018DISCHARGE (KAF)13251426
42HOTI1BRUNEAU-NEAR HOT SPRINGS10-09-2018DISCHARGE (KAF)172666
43SWAI1SNAKE-BELOW SWAN FALLS10-09-2018DISCHARGE (KAF)1927251777
44HWRI1BIG LOST-AT HOWELL RANCH NEAR CHILLY10-09-2018DISCHARGE (KAF)2422112
45HALI1BIG WOOD-AT HAILEY10-09-2018DISCHARGE (KAF)374192
46BIGI1BOISE-AT GLENWOOD BRIDGE10-09-2018DISCHARGE (KAF)5137135
47PARI1BOISE-NEAR PARMA10-09-2018DISCHARGE (KAF)18420988
48VALO3MALHEUR-NEAR VALE10-09-2018DISCHARGE (KAF)162470
49EMMI1PAYETTE-NEAR EMMETT10-09-2018DISCHARGE (KAF)28034481
50WSRI1WEISER-NEAR WEISER10-09-2018DISCHARGE (KAF)376656
51WEII1SNAKE-AT WEISER10-09-2018DISCHARGE (KAF)2734355977
52WHBI1SALMON-AT WHITEBIRD10-09-2018DISCHARGE (KAF)1008108493
53TRYO3GRANDE RONDE-TROY10-09-2018DISCHARGE (KAF)18527268
54ANAW1SNAKE-NEAR ANATONE10-09-2018DISCHARGE (KAF)3823552369
55ORFI1CLEARWATER-AT OROFINO10-09-2018DISCHARGE (KAF)38262761
56SPDI1CLEARWATER-AT SPALDING10-09-2018DISCHARGE (KAF)819149855
57TCHW1WALLA WALLA-NEAR TOUCHET10-09-2018DISCHARGE (KAF)869789
58GIBO3UMATILLA-NEAR GIBBON10-09-2018DISCHARGE (KAF)3329111
59PDTO3UMATILLA-AT PENDLETON10-09-2018DISCHARGE (KAF)7366112
60MYKO3MCKAY CREEK-NEAR PILOT ROCK10-09-2018DISCHARGE (KAF)131492
61UMAO3UMATILLA-NEAR UMATILLA10-09-2018DISCHARGE (KAF)10869157
62MONO3NF JOHN DAY-AT MONUMENT10-09-2018DISCHARGE (KAF)548862
63SERO3JOHN DAY-AT SERVICE CK10-09-2018DISCHARGE (KAF)12116772
64MODO3DESCHUTES-AT MOODY NR BIGGS10-09-2018DISCHARGE (KAF)1288134296
65PITW1KLICKITAT-NEAR PITT10-09-2018DISCHARGE (KAF)21125782
66HODO3HOOD-NEAR TUCKER BRIDGE10-09-2018DISCHARGE (KAF)224209108
67UNDW1WHITE SALMON-NEAR UNDERWOOD10-09-2018DISCHARGE (KAF)221221100
68LYDM8KOOTENAI-LIBBY DAM10-09-2018INFLOW (KAF)77493783
69HHWM8SF FLATHEAD-HUNGRY HORSE DAM10-09-2018INFLOW (KAF)13724456
70KERM8FLATHEAD-KERR DAM10-09-2018INFLOW (KAF)1012149468
71NOXM8CLARK FORK-NOXON RAPIDS DAM10-09-2018INFLOW (KAF)2524344273
72CABI1CLARK FORK-CABINET GORGE DAM10-09-2018INFLOW (KAF)2766358777
73ALFW1PEND OREILLE-ALBENI FALLS DAM10-09-2018INFLOW (KAF)2899416970
74COEI1COEUR D ALENE-COEUR D ALENE LAKE10-09-2018INFLOW (KAF)23459539
75LLKW1SPOKANE-AT LONGLAKE10-09-2018INFLOW (KAF)525104450
76GCDW1COLUMBIA-GRAND COULEE DAM10-09-2018INFLOW (KAF)1971017222114
77CHJW1COLUMBIA-CHIEF JOSEPH DAM10-09-2018INFLOW (KAF)197902081395
78WELW1COLUMBIA-WELLS DAM10-09-2018INFLOW (KAF)201222116895
79CHDW1CHELAN-LAKE CHELAN DAM10-09-2018INFLOW (KAF)13815688
80RRHW1COLUMBIA-ROCKY REACH DAM10-09-2018INFLOW (KAF)206812167095
81WANW1COLUMBIA-WANAPUM DAM10-09-2018INFLOW (KAF)2088019365108
82PRWW1COLUMBIA-PRIEST RAPIDS DAM10-09-2018INFLOW (KAF)2087919702106
83KEDW1YAKIMA-KEECHELUS LAKE10-09-2018INFLOW (KAF)375074
84KADW1KACHESS-KACHESS DAM10-09-2018INFLOW (KAF)344379
85CLUW1CLE ELUM-CLE ELUM LAKE10-09-2018INFLOW (KAF)5510055
86BUDW1BUMPING-BUMPING LAKE DAM10-09-2018INFLOW (KAF)203459
87RILW1TIETON-RIMROCK LAKE NEAR RIMROCK10-09-2018INFLOW (KAF)376458
88IPDI1HENRYS FORK-ISLAND PARK DAM10-09-2018INFLOW (KAF)8411871
89JLKW4SNAKE-JACKSON LAKE AT DAM10-09-2018INFLOW (KAF)10611295
90PLDI1SF SNAKE-PALISADES DAM10-09-2018INFLOW (KAF)648646100
91RIDI1WILLOW CREEK-RIRIE DAM10-09-2018INFLOW (KAF)88101
92AFRI1SNAKE-AMERICAN FALLS RESERVOIR10-09-2018INFLOW (KAF)1436145299
93MACI1BIG LOST-MACKAY RESERVOIR NEAR MACKAY10-09-2018INFLOW (KAF)436677
94MAGI1BIG WOOD-MAGIC DAM10-09-2018INFLOW (KAF)222782
95LWRI1LITTLE WOOD-LITTLE WOOD DAM10-09-2018INFLOW (KAF)131585
96OWYO3OWYHEE-OWYHEE DAM10-09-2018INFLOW (KAF)7874107
97ARAI1SF BOISE-ANDERSON RANCH DAM10-09-2018INFLOW (KAF)687393
98LUCI1BOISE-LUCKY PEAK DAM10-09-2018INFLOW (KAF)28MM
99WRMO3MALHEUR-WARM SPRINGS DAM10-09-2018INFLOW (KAF)111862
100BERO3MALHEUR-AGENCY VALLEY DAM10-09-2018INFLOW (KAF)101567
101BULO3BULLY CREEK-BULLY CREEK DAM10-09-2018INFLOW (KAF)22128
102CSDI1NF PAYETTE-CASCADE DAM10-09-2018INFLOW (KAF)829289
103DEDI1DEADWOOD-NEAR LOWMAN10-09-2018INFLOW (KAF)171989
104BRNI1SNAKE-BROWNLEE DAM10-09-2018INFLOW (KAF)2909366079
105DWRI1NF CLEARWATER-DWORSHAK DAM10-09-2018INFLOW (KAF)26747656
106LGDW1SNAKE-LOWER GRANITE DAM10-09-2018INFLOW (KAF)4643722764
107LGSW1SNAKE-LITTLE GOOSE DAM10-09-2018INFLOW (KAF)4643727764
108LMNW1SNAKE-LOWER MONUMENTAL DAM10-09-2018INFLOW (KAF)4675733464
109IHDW1SNAKE-ICE HARBOR DAM10-09-2018INFLOW (KAF)4675725764
110MCDW1COLUMBIA-MCNARY DAM10-09-2018INFLOW (KAF)261302883291
111JDAO3COLUMBIA-JOHN DAY DAM10-09-2018INFLOW (KAF)271862966692
112TDAO3COLUMBIA-THE DALLES DAM10-09-2018INFLOW (KAF)278713291485
113BONO3COLUMBIA-BONNEVILLE DAM10-09-2018INFLOW (KAF)285163486382
114HOPI1PEND OREILLE-PEND OREILLE LAKE NR HOPE10-09-2018LAKE ELEVATION (FT)MMM
115BFEI1KOOTENAI-AT BONNERS FERRY10-09-2018STAGE (FT)MMM
116SJMI1ST JOE-AT ST MARIES10-09-2018STAGE (FT)MMM